Location: Gallinara
(44.0333°N, 8.2333°E)
Time: 01:15:10
(UTC+00:00)

Daily predictions for brighter satellites

Satellite Brightness Start Highest point End
(mag) Time Altitude Azimuth Time Altitude Azimuth Time Altitude Azimuth
Cosmos 1980 Rocket 4.4 01:05:33 21° NE 01:05:33 21° NE 01:07:36 10° NE
Cosmos 2263 Rocket 4.4 01:00:41 10° N 01:03:49 21° NNE 01:03:49 21° NNE
Lacrosse 5 4.4 01:22:28 18° NE 01:22:28 18° NE 01:23:50 10° NE
SL-16 R/B 4.5 01:24:45 17° E 01:24:45 17° E 01:27:46 10° ENE
Resurs 1-4 Rocket 4.3 01:25:22 10° N 01:26:56 20° N 01:26:56 20° N
CZ-2D R/B 4.2 01:31:57 10° N 01:33:36 20° N 01:33:36 20° N
USA 267 4.0 01:44:10 10° ENE 01:49:37 43° ESE 01:49:37 43° ESE
ARIANE 5 R/B 4.1 01:46:50 10° NNE 01:50:05 31° ENE 01:50:05 31° ENE
Gbstr 26 Del rocket 4.4 02:03:39 75° NNW 02:04:21 81° NNE 02:11:57 10° ESE
ATLAS 2AS CENTAUR R/B 4.3 01:58:21 10° NNW 02:05:10 34° NE 02:11:30 10° E
SL-4 R/B 3.8 02:21:54 34° ENE 02:21:54 34° ENE 02:24:44 10° ENE
ADEOS II 3.3 02:15:19 10° N 02:18:19 34° N 02:18:19 34° N
IDEFIX/ARIANE 42P 3.1 02:17:24 10° NNE 02:22:24 56° E 02:22:24 56° E
USA 234 4.1 02:19:13 10° E 02:25:24 46° NNE 02:30:48 14° NW
Cosmos 2228 Rocket 4.5 02:33:13 33° NNE 02:33:13 33° NNE 02:35:42 10° N
Cosmos 1238 Rocket 4.2 02:28:05 10° NNW 02:33:17 56° NNW 02:33:17 56° NNW
Cosmos 1605 Rocket 4.0 02:28:19 10° N 02:34:46 80° E 02:37:19 40° SSE
Cosmos 2360 Rocket 3.9 02:33:12 18° SSE 02:36:16 29° ESE 02:41:03 10° NE
H-2A R/B 3.7 02:33:05 10° SE 02:37:03 34° ENE 02:41:06 10° N
Cosmos 1697 Rocket 4.3 02:40:57 21° NNW 02:40:57 21° NNW 02:44:10 10° N
CZ-2C R/B 4.3 02:41:18 10° NE 02:45:50 30° E 02:50:20 10° SSE
Cosmos 1980 Rocket 3.2 02:47:20 33° NW 02:47:20 33° NW 02:51:34 10° N
Cosmos 2263 Rocket 4.0 02:43:58 10° NNW 02:57:27 - SSE 02:45:20 18° NW
ASTEX 1 3.9 02:47:35 10° N 02:51:25 49° NNW 02:51:25 49° NNW
Cosmos 1844 Rocket 4.3 02:48:29 10° N 02:53:37 34° NE 02:58:43 10° ESE
Cosmos 2322 Rocket 2.2 02:54:20 54° S 02:55:37 76° ESE 03:01:21 10° NNE
Cosmos 1898 Rocket 3.4 02:52:43 10° NNW 02:58:00 89° WSW 03:03:18 10° SSE
Cosmos 1666 3.7 02:56:26 10° N 02:59:07 41° NNE 02:59:07 41° NNE
Spot 4 Rocket 3.8 02:55:28 10° N 03:00:37 76° WNW 03:01:01 72° WSW
X-37B 3.6 03:04:31 10° SE 03:04:31 10° SE 03:04:33 10° SE
Meteor 1-11 Rocket 3.8 02:56:34 10° N 03:02:21 77° E 03:07:57 10° SSE
Lacrosse 5 3.6 03:01:39 20° NNW 03:02:47 22° NNW 03:06:41 10° NE
Cosmos 921 Rocket 4.5 03:05:07 25° NNW 03:05:07 25° NNW 03:07:20 10° N
Cosmos 1812 4.2 03:08:14 27° NNW 03:08:14 27° NNW 03:10:13 10° N
SL-16 R/B 2.1 03:06:39 58° SW 03:07:42 73° WNW 03:13:23 10° NNE
Meteor 1-27 Rocket 4.0 03:05:04 21° S 03:09:09 75° E 03:15:03 10° NNE
ERBS 4.4 03:12:22 19° N 03:12:22 19° N 03:14:09 10° NNE
IRIDIUM 104 4.2 03:07:38 10° N 03:12:52 76° W 03:15:23 31° S
Cosmos 1727 Rocket 3.9 03:09:26 26° S 03:13:15 84° W 03:19:36 10° N
Cosmos 2100 Rocket 4.4 03:08:26 10° N 03:14:48 66° E 03:21:06 10° SSE
Cosmos 2237 4.5 03:13:42 25° S 03:17:01 67° ESE 03:22:42 10° NNE
Cosmos 1937 Rocket 3.3 03:12:21 10° NNW 03:17:31 83° WSW 03:22:39 10° SSE
CZ-4C R/B 4.0 03:20:03 37° NNW 03:20:03 37° NNW 03:22:17 10° NNW
Cosmos 1459 Rocket 4.3 03:12:54 10° N 03:18:57 64° E 03:24:57 10° SSE
FALCON 9 DEB 4.0 03:20:10 40° N 03:20:10 40° N 03:23:01 10° NE
Cosmos 841 Rocket 3.6 03:18:31 28° S 03:21:22 76° ESE 03:26:39 10° NNE
IRIDIUM 114 4.2 03:16:50 10° N 03:22:00 63° W 03:24:29 30° SSW
Cosmos 2219 Rocket 4.3 03:19:42 10° SSE 03:24:16 26° ESE 03:28:52 10° NE
Cosmos 1536 2.7 03:21:11 10° N 03:25:17 89° WSW 03:29:21 10° S
Cosmos 2208 Rocket 4.3 03:22:04 18° S 03:25:54 66° ESE 03:31:04 10° NNE
Cosmos 1763 Rocket 3.7 03:25:16 44° WSW 03:26:25 52° WNW 03:31:36 10° NNE
Cosmos 1814 Rocket 4.3 03:23:39 18° S 03:27:31 68° ESE 03:32:47 10° NNE
CZ-2D R/B 4.5 03:24:11 10° N 03:27:24 32° NW 03:27:24 32° NW
USA 32 3.9 03:25:13 10° N 03:30:28 75° W 03:35:42 10° S
ARIANE 5 R/B 3.4 03:26:11 10° N 03:30:25 29° WNW 03:30:25 29° WNW
IRIDIUM 103 4.4 03:26:04 10° NNW 03:31:07 51° W 03:33:37 28° SSW
NOSS 3-4 (A) 3.8 03:25:56 10° NW 03:33:01 82° SW 03:40:51 10° SSE
NOSS 3-4 (C) 3.8 03:26:02 10° NW 03:33:07 83° SW 03:40:58 10° SSE
Cosmos 1707 Rocket 3.5 03:32:28 46° SW 03:33:23 57° W 03:37:42 10° N
USA 267 3.4 03:27:07 10° NE 03:33:33 61° NNW 03:36:58 29° W
ADEOS Rocket 3.2 03:30:18 10° SSE 03:36:56 77° ENE 03:42:55 10° N
CZ-4B R/B 2.7 03:36:50 10° SE 03:39:51 40° ENE 03:42:58 10° N
ERS-2 2.0 03:37:25 10° SSE 03:41:03 89° ENE 03:44:45 10° NNW
Cosmos 540 Rocket 3.4 03:38:54 24° SSW 03:42:00 73° WNW 03:47:12 10° NNE
MSX 4.2 03:40:07 10° N 03:45:33 44° WNW 03:48:33 24° SW
COSMOS 2428 4.4 03:41:44 10° SSE 03:46:48 34° ESE 03:51:54 10° NE
Cosmos 44 Rocket 3.3 03:44:49 32° WSW 03:46:53 61° NW 03:51:44 10° NNE
Cosmos 1733 Rocket 2.9 03:44:10 10° NNW 03:48:30 68° W 03:52:46 10° S
Cosmos 1544 4.3 03:46:21 10° N 03:49:48 43° ENE 03:53:13 10° SSE
Cosmos 1743 2.9 03:47:22 10° N 03:51:10 71° E 03:54:58 10° SSE
PAYLOAD A 3.8 03:48:35 10° N 03:53:12 58° WNW 03:57:13 14° SSW
Landsat 5 4.1 03:50:29 10° SSW 03:54:39 37° W 03:58:48 10° NNW
Cosmos 2333 Rocket 3.1 03:50:09 10° S 03:55:42 51° ESE 04:01:16 10° NE
Cosmos 2173 Rocket 4.0 03:50:28 10° NNW 03:56:46 66° W 04:03:04 10° S
ATLAS 2AS CENTAUR R/B 2.7 03:49:21 10° NW 03:56:46 71° WSW 04:03:31 10° SSE
ADEOS 3.9 03:51:44 10° NNE 03:56:58 71° ESE 04:02:09 10° S
BREEZE M DEB (TANK) 4.0 03:47:26 10° WNW 03:58:39 39° SW 04:02:34 10° SSE
CZ-2C R/B 4.0 03:55:43 10° NNW 03:58:45 23° WNW 03:58:54 23° WNW
Cosmos 2242 Rocket 4.2 03:54:27 10° S 03:58:45 59° E 04:03:07 10° NNE
SL-4 R/B 3.0 03:57:30 23° WNW 04:00:00 43° NNW 04:04:36 10° NE
Cosmos 2322 4.0 03:54:53 10° SSW 04:00:30 71° ESE 04:06:09 10° NNE
IDEFIX/ARIANE 42P 3.9 03:57:52 10° NNW 04:01:47 21° WNW 04:03:12 19° W
Cosmos 1570 Rocket 4.3 03:58:30 18° SW 04:02:20 51° WNW 04:07:35 10° NNE
PSLV R/B 3.8 03:58:27 10° N 04:02:29 46° WNW 04:05:43 15° SW
BREEZE-M DEB (TANK) 2.6 03:59:36 20° WSW 04:04:13 88° N 04:07:05 10° ENE
USA 276 2.2 04:03:18 21° WNW 04:05:16 79° NNE 04:08:29 10° ESE
Meteor 2-20 4.4 03:59:54 10° SSW 04:06:01 74° W 04:12:08 10° N
USA 234 3.2 04:01:44 10° SE 04:08:13 69° SW 04:14:46 10° NW
Cosmos 1862 Rocket 3.7 04:04:02 10° SSW 04:08:16 50° WNW 04:12:30 10° N
BREEZE-M DEB (TANK) 4.1 04:08:00 18° WNW 04:10:25 48° N 04:19:21 10° ENE
H-2A R/B 3.1 04:09:24 10° SSW 04:13:03 25° W 04:16:45 10° NW
SAR-Lupe-4 3.5 04:10:28 10° SSE 04:14:02 84° WSW 04:17:40 10° NNW
CZ-4C R/B 3.5 04:07:21 10° NNW 04:14:32 65° NE 04:22:47 10° SE
Cosmos 1689 Rocket 3.2 04:13:11 10° SSE 04:16:02 46° ENE 04:18:55 10° N
ALOS 2.3 04:11:44 10° NNE 04:16:26 84° ESE 04:21:06 10° SSW
PKM 4.1 04:14:43 10° WNW 04:18:10 51° SW 04:22:17 10° SSE
Cosmos 2333 4.2 04:12:55 10° SSW 04:18:42 83° WNW 04:24:31 10° NNE
FENGYUN 3A 3.7 04:13:22 10° NNE 04:18:48 86° ESE 04:24:13 10° SSW
Cosmos 2360 Rocket 2.6 04:15:02 12° SW 04:20:02 45° WNW 04:25:28 10° NNE
COSMOS 2455 4.3 04:16:46 10° NNW 04:22:24 39° NE 04:28:00 10° ESE
CZ-2C R/B 3.1 04:19:20 10° N 04:24:03 37° WNW 04:28:47 10° SW
Cosmos 1975 3.0 04:20:39 10° N 04:24:40 77° E 04:28:38 10° SSE
Meteor 1-19 Rocket 4.2 04:20:57 10° S 04:26:27 89° E 04:32:09 10° N
Meteor 1-18 Rocket 4.2 04:21:39 10° SSW 04:27:11 84° W 04:32:49 10° N
Cosmos 372 Rocket 4.3 04:23:43 10° NW 04:28:30 40° WSW 04:33:13 10° S
Cosmos 2016 Rocket 4.0 04:22:34 10° NNW 04:28:31 55° W 04:34:25 10° SSW
SAR-Lupe-1 4.2 04:29:39 10° S 04:33:08 51° W 04:36:39 10° NNW
Cosmos 1484 Rocket 2.9 04:29:44 10° N 04:33:40 56° WNW 04:37:35 10° SSW
Cosmos 2061 Rocket 4.2 04:29:09 10° NNW 04:35:21 51° W 04:41:30 10° SSW
ATLAS CENTAUR Rocket 4.3 04:28:24 10° WSW 04:36:19 21° SSW 04:40:06 10° SSE
Cosmos 1515 3.8 04:33:00 10° SSW 04:36:42 53° W 04:40:26 10° N
Cosmos 1844 Rocket 3.1 04:32:19 10° NW 04:37:32 39° WSW 04:42:45 10° S
Cosmos 2233 Rocket 4.0 04:32:08 10° N 04:38:18 86° W 04:44:27 10° S
Cosmos 2322 Rocket 3.6 04:36:12 10° W 04:40:20 20° NW 04:44:30 10° N
Cosmos 2278 Rocket 3.3 04:37:07 10° NNW 04:42:38 49° ENE 04:48:06 10° SE
Okean 1 4.0 04:41:05 10° SW 04:44:47 34° WNW 04:48:30 10° N
Cosmos 1844 4.1 04:41:10 10° NW 04:46:21 40° WSW 04:51:30 10° S
Meteor 1-31 Rocket 3.0 04:42:50 10° N 04:46:33 49° WNW 04:50:16 10° SSW
COSMO-SKYMED 1 2.5 04:42:26 10° S 04:46:47 81° WSW 04:51:09 10° NNW
Lacrosse 5 3.9 04:43:37 10° NW 04:47:20 20° N 04:51:03 10° ENE
Aureole 2 Rocket 4.4 04:45:57 10° N 04:48:33 26° ENE 04:51:00 10° ESE
Cosmos 1725 Rocket 4.3 04:45:19 10° NNW 04:51:08 44° W 04:56:55 10° SSW
Meteor 2-9 Rocket 4.2 04:46:38 10° NNW 04:51:59 58° W 04:57:12 10° S
